Weather reports worldwide

Advertisment
Pershore, United Kingdom (3529): temperature & dewpoint: 16.01.2020 00:00:00 - 22.01.2020 00:00:00 (GMT)Pershore, United Kingdom (3529): temperature -20cm & temperature -100cm: 16.01.2020 00:00:00 - 22.01.2020 00:00:00 (GMT)Pershore, United Kingdom (3529): wind speed & gusts: 16.01.2020 00:00:00 - 22.01.2020 00:00:00 (GMT)Pershore, United Kingdom (3529): wind direction: 16.01.2020 00:00:00 - 22.01.2020 00:00:00 (GMT)Pershore, United Kingdom (3529): reduced air pressure: 16.01.2020 00:00:00 - 22.01.2020 00:00:00 (GMT)Pershore, United Kingdom (3529): visibility: 16.01.2020 00:00:00 - 22.01.2020 00:00:00 (GMT)Pershore, United Kingdom (3529): precipitation: 16.01.2020 00:00:00 - 22.01.2020 00:00:00 (GMT)
Date & Time tt [°C] td [°C] tt -20cm [°C] tt -100cm [°C] ff [km/h] ff [kn] fx [km/h] fx [kn] dd ppp [hPa] vv [km] rr [mm]
22.01.2020 00:00:00 4,4 4,4 - - 5 3 - - SSW 1040,6 0,7 0,0
21.01.2020 23:00:00 4,0 3,9 - - 2 1 - - SSW 1040,8 0,8 0,2
21.01.2020 22:00:00 3,9 3,7 - - 4 2 - - W 1040,6 1,1 0,0
21.01.2020 21:00:00 4,1 3,7 - - 2 1 - - WSW 1040,6 1,7 0,0
21.01.2020 20:00:00 4,3 3,5 - - 5 3 - - SW 1040,7 5 0,0
21.01.2020 19:00:00 4,8 2,9 - - 5 3 - - SW 1040,9 16 0,0
21.01.2020 18:00:00 5,2 3,1 - - 8 4 - - SSW 1040,6 18 0,0
21.01.2020 17:00:00 5,2 3,1 - - 8 4 - - SSW 1040,7 18 0,0
21.01.2020 16:00:00 7,0 2,6 - - 4 2 - - WSW 1040,8 24 0,0
21.01.2020 15:00:00 7,9 3,6 - - 4 2 - - W 1041,2 22 0,0
21.01.2020 14:00:00 6,2 3,5 - - 5 3 - - WNW 1041,7 16 0,0
21.01.2020 13:00:00 4,6 3,2 - - 5 3 - - WNW 1042,4 11 0,0
21.01.2020 12:00:00 2,4 2,3 - - 8 4 - - WSW 1043,3 8 0,0
21.01.2020 11:00:00 0,6 0,6 - - 2 1 - - NW 1043,9 3,7 0,0
21.01.2020 10:00:00 -0,9 -0,9 - - 4 2 - - NNW 1043,9 2,9 0,0
21.01.2020 09:00:00 -2,4 -2,5 4,7 8,2 0 0 - - N 1043,5 1,0 0,0
21.01.2020 08:00:00 -2,5 -2,6 - - 2 1 - - SSE 1043,9 0,1 0,0
21.01.2020 07:00:00 -2,5 -2,5 - - 2 1 - - ENE 1043,7 - 0,0
21.01.2020 06:00:00 -3,7 -3,8 - - 0 0 - - N 1043,3 - 0,0
21.01.2020 05:00:00 -5,2 -5,8 - - 0 0 - - N 1043,5 2,8 0,0
21.01.2020 04:00:00 -4,9 -5,5 - - 2 1 - - E 1043,6 6 0,0
21.01.2020 03:00:00 -4,1 -4,4 - - 4 2 - - SE 1043,7 3,8 0,0
21.01.2020 02:00:00 -4,5 -5,0 - - 0 0 - - N 1044,2 0,5 0,0
21.01.2020 01:00:00 -4,2 -4,7 - - 0 0 - - N 1044,8 - 0,0
21.01.2020 00:00:00 -3,8 -4,2 - - 2 1 - - ESE 1045,4 0,1 0,0
20.01.2020 23:00:00 -3,0 -3,3 - - 2 1 - - ENE 1045,8 0,5 0,0
20.01.2020 22:00:00 -2,5 -2,9 - - 4 2 - - NNW 1045,9 0,1 0,0
20.01.2020 21:00:00 -1,8 -2,1 - - 2 1 - - WSW 1046,1 1,8 0,0
20.01.2020 20:00:00 -0,3 -0,9 - - 4 2 - - WSW 1046,3 1,3 0,0
20.01.2020 19:00:00 0,6 -0,1 - - 5 3 - - S 1046,5 4,5 0,0
20.01.2020 18:00:00 1,8 0,9 - - 8 4 - - SSW 1046,7 8 0,0
20.01.2020 17:00:00 2,4 0,8 - - 8 4 - - SSW 1046,7 13 0,0
20.01.2020 16:00:00 4,5 1,9 - - 8 4 - - SW 1046,6 14 0,0
20.01.2020 15:00:00 5,6 2,5 - - 8 4 - - SSW 1047,0 17 0,0
20.01.2020 14:00:00 5,3 2,3 - - 8 4 - - WSW 1047,4 18 0,0
20.01.2020 13:00:00 4,5 1,9 - - 8 4 - - WSW 1048,2 19 0,0
20.01.2020 12:00:00 3,0 1,1 - - 9 5 - - WSW 1049,0 23 0,0
20.01.2020 11:00:00 2,1 1,5 - - 4 2 - - W 1049,8 13 0,0
20.01.2020 10:00:00 0,9 0,8 - - 2 1 - - WSW 1049,7 8 0,0
20.01.2020 09:00:00 -2,3 -2,5 5,2 8,4 4 2 - - S 1049,5 4,9 0,0
20.01.2020 08:00:00 -2,8 -3,0 - - 2 1 - - NW 1049,5 3,6 0,0
20.01.2020 07:00:00 -2,5 -2,7 - - 2 1 - - SW 1049,0 0,7 0,0
20.01.2020 06:00:00 -2,4 -2,6 - - 4 2 - - SW 1048,7 3,3 0,0
20.01.2020 05:00:00 -2,4 -2,6 - - 4 2 - - SSE 1049,4 3,9 0,0
20.01.2020 04:00:00 -2,5 -2,8 - - 2 1 - - E 1049,5 4,9 0,0
20.01.2020 03:00:00 -1,7 -2,0 - - 2 1 - - NNE 1049,5 2,8 0,0
20.01.2020 02:00:00 0,0 -0,2 - - 4 2 - - SW 1049,6 4,4 0,0
20.01.2020 01:00:00 0,8 0,6 - - 5 3 - - SW 1049,9 8 0,0
20.01.2020 00:00:00 0,4 0,4 - - 8 4 - - S 1049,5 8 0,0
19.01.2020 23:00:00 -1,6 -1,7 - - 2 1 - - NE 1049,5 4,9 0,0
19.01.2020 22:00:00 -1,6 -1,7 - - 4 2 - - ESE 1049,2 6 0,0
19.01.2020 21:00:00 -1,7 -1,9 - - 2 1 - - NNE 1049,5 5 0,0
19.01.2020 20:00:00 -1,5 -1,6 - - 0 0 - - N 1049,2 3,8 0,0
19.01.2020 19:00:00 -1,9 -2,1 - - 0 0 - - N 1049,3 3,4 0,0
19.01.2020 18:00:00 -1,8 -2,2 - - 2 1 - - ESE 1048,8 4,6 0,0
19.01.2020 17:00:00 -0,4 -1,3 - - 2 1 - - NNE 1048,4 1,6 0,0
19.01.2020 16:00:00 2,0 1,5 - - 2 1 - - E 1047,8 9 0,0
19.01.2020 15:00:00 1,8 1,8 - - 4 2 - - N 1047,8 1,8 0,0
19.01.2020 14:00:00 1,5 1,5 - - 2 1 - - N 1047,2 0,1 0,0
19.01.2020 13:00:00 0,9 0,9 - - 5 3 - - ESE 1047,0 0,1 0,0
19.01.2020 12:00:00 0,2 0,2 - - 4 2 - - NNW 1047,4 0,1 0,2
19.01.2020 11:00:00 -0,3 -0,3 - - 4 2 - - NW 1047,6 0,1 0,0
19.01.2020 10:00:00 -0,3 -0,3 - - 4 2 - - SSW 1046,5 0,1 0,0
19.01.2020 09:00:00 -0,4 -0,4 6,0 8,5 2 1 - - WNW 1046,0 - 0,0
19.01.2020 08:00:00 -1,5 -1,5 - - 2 1 - - N 1044,8 5 0,0
19.01.2020 07:00:00 -2,7 -2,8 - - 2 1 - - W 1043,5 4,9 0,0
19.01.2020 06:00:00 -3,4 -3,6 - - 5 3 - - SSW 1042,5 8 0,0
19.01.2020 05:00:00 -3,5 -3,8 - - 4 2 - - SSW 1041,8 11 0,0
19.01.2020 04:00:00 -2,8 -3,2 - - 2 1 - - W 1041,2 8 0,0
19.01.2020 03:00:00 -1,6 -1,9 - - 5 3 - - WNW 1040,6 11 0,0
19.01.2020 02:00:00 -0,5 -0,7 - - 5 3 - - W 1039,7 13 0,0
19.01.2020 01:00:00 -1,2 -1,8 - - 5 3 - - W 1039,1 15 0,0
19.01.2020 00:00:00 -0,2 -1,0 - - 5 3 - - WSW 1038,1 17 0,0
18.01.2020 23:00:00 -1,2 -2,3 - - 4 2 - - SSW 1037,2 18 0,0
18.01.2020 22:00:00 0,4 -0,6 - - 4 2 - - WSW 1036,1 21 0,0
18.01.2020 21:00:00 0,2 -2,0 - - 2 1 - - WNW 1035,4 18 0,0
18.01.2020 20:00:00 2,9 0,1 - - 9 5 - - W 1034,7 23 0,0
18.01.2020 19:00:00 2,4 0,1 - - 9 5 - - W 1033,8 25 0,0
18.01.2020 18:00:00 2,2 0,1 - - 8 4 - - W 1032,9 15 0,0
18.01.2020 17:00:00 2,6 -0,3 - - 4 2 - - NW 1032,1 35 0,0
18.01.2020 16:00:00 4,2 0,6 - - 5 3 - - NW 1031,5 35 0,0
18.01.2020 15:00:00 6,9 1,8 - - 5 3 - - NW 1030,7 23 0,0
18.01.2020 14:00:00 7,6 2,1 - - 9 5 - - WNW 1030,1 26 0,0
18.01.2020 13:00:00 6,4 1,5 - - 11 6 - - W 1029,7 24 0,0
18.01.2020 12:00:00 6,1 2,0 - - 4 2 - - N 1028,9 17 0,0
18.01.2020 11:00:00 3,8 2,2 - - 5 3 - - W 1028,3 25 0,0
18.01.2020 10:00:00 1,9 1,4 - - 5 3 - - WSW 1027,9 16 0,0
18.01.2020 09:00:00 -1,2 -1,4 7,0 8,5 2 1 - - SSE 1027,5 10 0,0
18.01.2020 08:00:00 -2,3 -2,9 - - 2 1 - - ESE 1026,8 11 0,0
18.01.2020 07:00:00 0,0 -0,5 - - 5 3 - - SW 1025,9 20 0,0
18.01.2020 06:00:00 0,2 -0,7 - - 4 2 - - SSW 1025,1 19 0,0
18.01.2020 05:00:00 0,9 0,3 - - 5 3 - - SW 1024,1 22 0,0
18.01.2020 04:00:00 1,1 0,3 - - 5 3 - - SSW 1023,5 20 0,0
18.01.2020 03:00:00 1,7 0,7 - - 9 5 - - SSW 1023,3 23 0,0
18.01.2020 02:00:00 1,9 1,0 - - 8 4 - - SW 1022,4 30 0,0
18.01.2020 01:00:00 1,2 0,4 - - 8 4 - - SW 1021,7 20 0,0
18.01.2020 00:00:00 1,8 1,0 - - 9 5 - - WSW 1020,9 20 0,0
17.01.2020 23:00:00 2,4 1,3 - - 15 8 - - SW 1019,6 35 0,0
17.01.2020 22:00:00 2,3 1,5 - - 11 6 - - SW 1018,8 40 0,0
17.01.2020 21:00:00 2,9 2,0 - - 13 7 - - SSW 1018,0 35 0,0
17.01.2020 20:00:00 3,0 2,0 - - 9 5 - - SSW 1017,5 30 0,0
17.01.2020 19:00:00 3,9 2,6 - - 13 7 - - SSW 1016,5 40 0,0
17.01.2020 18:00:00 4,9 2,4 - - 16 9 - - SW 1016,0 35 0,0
17.01.2020 17:00:00 5,1 2,7 - - 18 10 - - SSW 1015,3 30 0,0
17.01.2020 16:00:00 6,1 2,8 - - 15 8 - - SW 1014,5 40 0,0
17.01.2020 15:00:00 7,2 2,9 - - 15 8 - - SW 1013,8 45 0,2
17.01.2020 14:00:00 6,6 2,5 - - 13 7 - - W 1013,2 40 0,0
17.01.2020 13:00:00 5,6 2,4 - - 13 7 - - W 1012,8 50 0,0
17.01.2020 12:00:00 5,2 2,8 - - 24 13 55 30 WNW 1011,5 45 0,0
17.01.2020 11:00:00 5,7 3,9 - - 29 16 48 26 W 1009,5 12 0,0
17.01.2020 10:00:00 7,7 5,6 - - 21 11 - - SSW 1007,5 35 0,0
17.01.2020 09:00:00 7,3 5,4 7,7 8,5 15 8 - - SSW 1007,1 35 0,0
17.01.2020 08:00:00 7,3 5,1 - - 15 8 - - S 1006,3 45 0,0
17.01.2020 07:00:00 7,8 5,6 - - 11 6 - - S 1006,3 40 0,0
17.01.2020 06:00:00 8,6 5,7 - - 16 9 - - S 1005,8 40 0,0
17.01.2020 05:00:00 9,4 7,0 - - 15 8 - - S 1005,7 16 0,0
17.01.2020 04:00:00 7,5 6,2 - - 13 7 - - SSE 1006,3 14 0,0
17.01.2020 03:00:00 8,5 6,5 - - 11 6 - - S 1006,9 19 0,0
17.01.2020 02:00:00 8,6 6,5 - - 11 6 - - S 1007,2 17 0,0
17.01.2020 01:00:00 8,6 6,5 - - 11 6 - - S 1007,5 18 0,0
17.01.2020 00:00:00 8,8 6,7 - - 9 5 - - S 1008,0 23 0,0
16.01.2020 23:00:00 9,2 6,8 - - 11 6 - - SSW 1007,9 21 0,0
16.01.2020 22:00:00 9,9 7,1 - - 16 9 - - SSW 1007,4 20 0,0
16.01.2020 21:00:00 10,9 7,8 - - 28 15 - - SW 1006,8 16 0,0
16.01.2020 20:00:00 11,9 8,9 - - 26 14 - - SSW 1005,8 13 0,0
16.01.2020 19:00:00 12,0 9,8 - - 24 13 48 26 S 1005,2 25 0,2
16.01.2020 18:00:00 11,7 10,4 - - 35 19 59 32 S 1004,9 15 0,2
16.01.2020 17:00:00 11,5 9,4 - - 42 23 68 37 S 1004,2 8 0,0
16.01.2020 16:00:00 10,3 8,7 - - 35 19 63 34 SSE 1004,4 24 1,6
16.01.2020 15:00:00 9,9 8,5 - - 37 20 70 38 SSE 1005,4 7 1,6
16.01.2020 14:00:00 10,0 8,2 - - 39 21 61 33 SSE 1006,2 9 0,6
16.01.2020 13:00:00 10,1 8,0 - - 35 19 55 30 SSE 1007,7 30 0,2
16.01.2020 12:00:00 10,0 7,1 - - 35 19 63 34 SSE 1009,5 40 0,0
16.01.2020 11:00:00 8,9 6,1 - - 29 16 46 25 SE 1010,9 30 0,0
16.01.2020 10:00:00 8,5 5,6 - - 24 13 - - SSE 1012,7 28 0,0
16.01.2020 09:00:00 7,6 5,2 7,4 8,5 21 11 - - SSE 1014,0 20 0,0
16.01.2020 08:00:00 7,2 5,3 - - 26 14 - - SSE 1014,0 17 0,0
16.01.2020 07:00:00 7,0 5,2 - - 24 13 - - SSE 1014,5 17 0,0
16.01.2020 06:00:00 7,1 5,2 - - 24 13 - - SSE 1015,1 16 0,0
16.01.2020 05:00:00 7,8 5,4 - - 21 11 - - S 1015,8 17 0,0
16.01.2020 04:00:00 7,3 5,2 - - 18 10 - - S 1016,6 20 0,0
16.01.2020 03:00:00 6,7 4,9 - - 15 8 - - S 1016,7 18 0,0
16.01.2020 02:00:00 4,1 3,0 - - 13 7 - - SE 1016,9 16 0,0
16.01.2020 01:00:00 6,2 4,0 - - 13 7 - - S 1016,8 18 0,0
16.01.2020 00:00:00 6,3 3,7 - - 13 7 - - S 1016,3 22 0,0

tt = temperature
td = dewpoint
tt -20cm = temperature -20cm
tt -100cm = temperature -100cm
ff = wind speed
fx = gusts
dd = wind direction
ppp = reduced air pressure
vv = visibility
rr = precipitation

Next stations